Погода в Ройал-Танбридж-Уэльс

Великобритания     51°07′57″N   0°15′45″E
темп.,
°C
ветер,
м/с
пор.,
м/с
влажн.,
%
обл.,
%
осадки,
мм/ч
давл.,
гПа
погр.,
м
10 мая, пн
пн1001:00+11ююз2796100 2.7 996299
04:00+9юз51194100 0.3 997403
07:00+10ююз71294100 0.3 998879
10:00+11ююз9138677 0.3 10001073
13:00+14юз1115695 0.8 10021470
16:00+14юз1014625 0.0 10041655
19:00+12юз511735 0.0 10051009
22:00+7ююв35935 0.0 100778
11 мая, вт
вт1101:00+6юз229032 0.0 100721
04:00+6юв22895 0.0 100711
07:00+9юв268867 0.0 1008154
10:00+14ю57665 0.0 1007990
13:00+14ю7964100 0.1 10081492
16:00+10ю51089100 0.6 1009665
19:00+11ю61181100 0.7 10081022
22:00+8ююз5139431 0.0 1010530
12 мая, ср
ср1201:00+7юз5119775 0.0 1010468
04:00+6ююз38973 0.0 1011189
07:00+8ю28920 0.0 1011312
10:00+12ююз566518 0.0 10111286
13:00+14ююз676149 0.1 10111588
16:00+14ююз565730 0.1 10111428
19:00+12ююв3471100 0.1 1010256
22:00+9в3780100 0.1 1010216
13 мая, чт
чт1301:00+9вюв51284100 0.1 1009404
04:00+10ююв4890100 0.6 1008427
07:00+9зсз1198100 5.6 100887
10:00+9ссв1195100 2.6 1008163
13:00+13зсз027942 3.6 1007880
16:00+13юз567781 2.2 10071165
19:00+11ююз46790 2.7 1007529
22:00+7ююз34970 0.0 100868
14 мая, пт
пт1401:00+6ю229810 0.0 100821
04:00+5ююз119820 0.0 100810
07:00+8юз24910 0.0 1008149
10:00+13юз457125 0.0 10091033
13:00+14юз566933 1.1 10091341
16:00+14юз556598 0.5 10091409
19:00+13юз587857 0.6 1010564
22:00+7ююз36955 0.0 1011113